Wind_Speed
15 15 15 15 15 15 15 15 15 15 16 16 16 16 16 16 16 16 16 15 15 15 16 16 16 16 16 16 16 16 16 16 17 17 16 16 16 16 16 16 15 15 15 15 16 16 16 16 15 15 17 17 17 18 16 16 17 16 17 19 20 19 18 17 16 11 11 10 4 3 2 5 8 8 8 11 13 10 9 14 18 15 13 11 13 21 21 18
14 14 14 14 14 14 14 14 14 15 15 15 15 15 15 15 16 16 15 15 15 15 15 16 16 16 16 16 16 16 16 16 17 17 17 16 16 15 15 15 15 15 14 14 13 14 14 13 13 15 16 16 16 16 16 17 18 19 19 20 22 21 18 16 14 9 5 4 1 4 3 4 8 6 5 10 13 12 11 13 18 16 13 15 17 21 22 20
13 13 13 14 14 14 14 14 14 14 15 15 15 15 15 15 15 15 15 15 14 14 14 14 15 16 16 15 16 15 15 15 16 18 17 16 15 15 15 14 14 13 13 13 13 13 12 10 10 12 14 15 15 15 16 17 19 21 21 21 22 21 21 18 13 9 5 3 3 4 1 3 6 7 6 8 11 15 15 13 16 14 13 15 17 21 22 20
13 13 13 13 14 14 14 14 14 14 14 15 15 15 15 15 15 14 14 14 14 14 14 14 14 15 15 15 15 14 14 12 16 20 15 13 14 14 14 13 13 13 12 12 13 13 10 9 9 11 14 15 15 16 18 18 18 20 22 24 22 19 20 18 13 12 12 10 6 2 1 3 6 6 7 7 9 13 14 11 14 15 14 15 17 23 23 20
13 13 14 14 14 14 14 14 14 14 14 14 14 15 15 15 15 14 14 14 14 14 14 13 13 14 14 14 14 13 9 5 14 21 13 11 13 12 13 12 12 12 12 12 13 13 12 12 12 14 16 16 16 17 20 20 19 19 22 24 23 22 21 16 10 11 12 11 11 7 5 6 3 4 7 8 9 12 15 10 10 14 12 15 20 22 20 19
13 13 14 14 14 14 14 14 14 14 14 14 14 14 14 14 15 14 14 14 14 14 14 13 13 12 12 14 13 12 8 5 14 21 14 11 11 11 12 11 11 11 11 12 13 14 14 14 15 17 17 18 17 18 19 19 21 21 21 22 24 25 24 18 12 9 10 10 11 13 12 9 5 7 6 7 6 9 13 10 7 11 10 16 21 20 17 17
14 14 14 14 14 14 14 14 14 14 13 14 14 14 14 14 14 14 14 14 14 13 13 13 13 12 11 12 11 12 10 10 17 22 17 13 12 11 10 10 10 10 10 11 13 13 14 15 17 18 18 18 18 19 19 18 21 23 23 21 21 23 22 20 14 9 8 11 13 14 14 10 8 10 6 8 8 3 4 12 15 11 10 17 21 20 18 18
14 14 14 14 14 14 14 14 14 14 14 13 13 13 13 13 14 14 14 14 14 14 13 13 12 12 11 10 11 10 7 10 20 22 18 16 15 13 11 10 9 9 9 10 13 13 14 16 18 18 18 18 17 17 18 19 21 24 24 22 20 21 20 20 19 14 8 9 12 13 13 9 10 12 7 7 12 8 5 11 13 8 9 16 18 19 20 19
14 14 14 14 14 14 15 14 15 14 14 13 13 13 13 13 13 13 14 13 13 13 13 13 12 12 10 10 10 5 4 12 21 19 16 17 15 13 12 11 10 9 8 10 12 13 13 15 16 18 18 17 17 17 17 19 21 22 23 24 23 21 18 16 18 18 14 10 10 13 14 12 12 13 9 9 12 10 9 10 8 9 11 14 17 18 20 17
15 15 14 14 14 14 15 15 15 14 14 14 13 13 13 13 13 13 13 12 13 13 13 13 12 12 11 10 9 6 8 14 19 19 16 17 16 13 13 12 11 10 9 10 12 14 13 13 13 14 17 17 17 17 18 20 20 20 21 22 24 24 21 18 17 18 18 15 13 14 15 14 14 14 13 12 12 11 11 12 12 14 14 13 19 20 18 12
15 15 15 15 15 15 15 15 15 14 14 14 14 13 13 13 13 13 13 12 13 12 13 13 12 13 12 12 11 10 13 14 17 21 16 15 16 14 13 13 12 11 11 10 10 12 13 12 11 12 15 17 17 17 18 20 20 20 20 18 20 22 24 22 19 17 18 19 17 16 16 15 16 17 16 14 13 14 13 12 14 13 14 15 19 19 15 10
16 15 15 15 15 15 15 15 15 15 14 14 14 14 13 13 13 13 13 13 13 13 14 14 13 13 13 15 12 10 15 16 17 21 18 14 15 15 14 13 12 12 12 10 8 10 13 14 13 14 15 13 15 17 16 17 20 22 20 18 18 19 23 24 21 18 17 18 17 16 17 18 18 19 19 18 16 17 15 14 15 14 15 17 17 17 15 11
17 16 16 15 15 15 16 15 15 15 14 15 14 14 13 13 13 12 13 13 13 13 13 14 14 15 16 16 11 11 16 17 17 21 21 16 15 15 14 12 11 11 12 11 9 11 14 17 14 15 16 13 13 14 12 13 16 21 20 21 21 19 23 25 23 21 18 18 16 15 18 18 20 20 18 17 16 17 16 15 16 15 16 19 19 20 16 14
18 17 17 16 16 16 16 15 15 15 15 15 14 14 13 13 12 12 13 13 14 14 13 14 14 15 18 14 11 14 15 15 20 21 19 17 15 14 13 12 12 11 12 14 14 12 13 15 15 17 19 16 14 13 13 13 14 18 19 21 22 22 22 21 23 24 21 20 17 17 19 18 18 20 21 18 15 17 16 15 17 14 16 22 20 19 17 16
18 18 17 17 16 16 16 16 16 15 15 15 15 14 13 12 12 12 13 13 14 14 13 14 13 16 17 12 12 16 13 14 20 19 17 17 14 12 12 12 12 11 12 14 16 15 13 14 17 19 19 16 16 16 15 14 15 16 19 22 22 23 23 20 23 27 25 22 21 21 21 19 17 19 23 23 20 22 19 16 18 15 19 26 22 19 18 17
19 19 18 18 17 16 16 16 16 16 16 15 15 14 13 12 12 13 13 13 14 14 14 13 12 14 13 11 13 14 12 13 16 17 17 16 11 10 12 12 11 12 12 13 14 16 16 14 16 18 16 15 17 17 15 15 17 18 19 21 21 22 22 21 23 26 27 23 23 25 21 18 19 19 20 23 24 25 23 20 18 17 23 29 24 22 20 17
19 19 19 19 18 18 17 16 16 16 16 15 15 14 13 12 12 13 13 14 14 14 14 12 12 13 10 10 11 8 10 12 12 15 16 14 11 9 10 13 11 11 11 11 13 14 14 14 14 15 16 17 17 16 17 18 17 18 20 20 20 22 21 22 24 24 27 24 23 25 23 20 20 17 17 22 29 26 22 22 18 19 25 27 23 23 20 16
19 19 19 19 19 18 18 17 17 17 16 16 15 14 13 12 13 13 13 14 15 14 13 11 11 9 6 7 5 4 7 10 12 12 12 12 10 10 12 15 11 10 10 11 12 12 13 14 14 14 16 19 18 19 21 20 18 16 18 19 20 22 22 23 25 23 26 25 23 23 24 24 23 20 16 15 28 26 21 21 19 21 26 26 23 24 21 18
19 19 19 19 19 19 18 17 17 17 17 16 15 14 12 12 13 13 14 15 15 13 10 10 12 10 4 5 3 0 3 12 13 9 12 13 11 13 15 14 11 11 12 12 13 12 13 14 15 17 18 19 20 21 21 22 21 16 14 18 19 20 21 23 23 21 27 26 24 22 24 24 23 22 16 9 20 21 19 20 19 21 25 26 25 26 24 22
20 20 20 20 20 20 18 17 17 16 17 16 16 14 11 10 11 14 18 17 13 12 11 13 16 14 10 5 5 6 10 14 12 9 14 15 13 14 14 13 12 13 14 14 13 12 14 15 17 20 19 19 19 20 21 24 23 19 17 19 20 20 20 21 22 20 25 24 22 22 23 22 20 21 19 15 18 18 18 19 20 20 22 24 25 27 26 24
21 21 21 21 21 21 20 18 17 16 16 16 16 14 11 9 9 12 20 20 15 14 15 15 17 17 14 9 7 10 14 15 12 9 15 16 14 14 15 15 15 16 17 15 13 11 15 18 19 19 18 17 18 18 20 23 22 20 20 22 19 21 21 19 20 19 22 20 19 20 22 21 20 20 20 20 21 22 22 21 21 21 21 22 24 27 25 22
21 21 21 21 21 21 21 20 18 17 16 15 15 15 12 10 12 14 20 23 18 14 18 16 16 18 15 15 14 13 13 13 11 11 16 17 15 15 16 16 17 17 16 16 16 14 17 21 19 17 17 16 17 16 19 21 20 19 18 21 17 17 19 18 19 20 18 16 16 17 20 21 20 21 21 21 22 22 22 23 22 22 23 22 24 27 23 21
21 21 21 21 20 21 20 19 19 17 16 15 14 14 13 12 14 16 18 23 20 13 18 19 16 18 17 17 17 16 17 17 14 14 18 19 16 15 16 16 17 17 16 18 20 17 17 20 19 17 18 17 16 14 13 15 16 17 16 17 15 12 17 15 14 15 13 12 14 14 16 19 20 22 22 22 23 20 20 22 20 22 24 22 25 28 23 22
20 20 20 20 20 20 20 18 18 17 16 14 14 14 14 13 14 16 17 22 24 15 14 17 16 19 20 18 17 19 21 20 17 16 21 22 17 17 17 16 16 17 18 19 20 20 17 15 14 16 18 18 16 13 11 11 13 17 18 18 15 13 15 13 11 13 10 10 12 13 15 19 21 21 20 22 24 21 20 20 19 20 22 22 27 27 23 26
18 18 19 18 18 19 19 19 16 14 14 13 13 12 13 13 12 15 16 18 22 15 10 12 14 18 18 15 17 19 19 20 18 18 23 23 17 18 17 16 17 17 18 19 19 21 19 13 11 15 18 17 15 15 16 15 14 17 21 22 21 18 16 14 11 12 10 10 12 13 14 16 19 21 19 21 23 22 21 18 19 20 19 23 27 24 24 27
16 16 17 16 16 16 17 17 13 11 9 8 9 9 10 12 10 12 13 14 18 14 8 8 10 14 15 16 18 16 16 20 19 18 22 23 17 19 17 15 18 17 17 18 18 19 19 14 11 13 14 12 14 17 17 18 18 18 19 20 24 25 21 17 12 11 11 12 12 14 15 12 16 22 23 23 22 22 23 19 20 20 19 25 28 25 26 25
14 14 15 15 15 14 15 15 12 10 3 2 10 13 12 11 9 8 9 9 13 11 11 12 10 12 12 15 19 18 14 16 18 20 22 23 18 20 19 15 16 17 15 15 17 17 17 15 13 14 14 12 15 17 16 18 19 19 17 16 20 24 22 19 14 12 13 14 12 14 17 14 16 21 24 25 23 22 23 21 21 20 19 26 27 25 27 24
13 13 13 13 14 14 13 13 13 11 10 11 15 12 9 9 7 4 4 4 4 3 11 15 15 14 11 13 19 20 12 8 16 22 22 22 19 20 21 18 15 16 15 15 16 15 15 15 14 14 16 17 17 17 16 17 19 20 17 15 17 20 21 18 15 14 13 12 12 14 16 13 14 17 18 22 25 24 22 21 22 21 21 25 26 24 26 24
13 12 12 12 13 14 12 13 12 11 14 17 14 8 7 7 6 5 4 5 5 5 10 14 15 13 11 14 18 20 15 9 14 20 22 21 19 21 21 18 15 16 16 16 16 13 12 15 16 14 16 17 17 16 17 18 19 19 17 15 13 15 19 18 15 16 14 10 11 13 14 11 12 15 15 18 24 24 22 21 21 21 23 27 28 24 21 20
13 12 12 11 13 13 12 13 13 11 14 15 11 9 10 8 7 7 6 5 7 9 9 12 14 11 12 17 17 19 19 13 11 17 23 21 20 22 18 15 15 15 15 18 18 15 10 10 14 16 17 17 15 14 17 19 18 16 15 14 12 13 18 18 18 17 12 9 12 16 16 13 11 13 16 18 20 21 20 21 21 21 24 27 26 22 20 19
13 12 11 10 12 12 12 13 12 11 12 12 10 10 11 11 10 9 8 8 10 10 10 11 12 12 15 18 18 20 21 17 13 18 22 20 20 23 19 16 16 14 15 18 19 20 16 11 11 14 17 17 14 13 14 16 16 14 13 12 13 13 14 16 18 15 8 6 13 17 18 16 13 11 13 15 17 17 17 17 18 20 24 26 25 23 21 19
13 12 11 10 10 11 12 13 11 9 9 9 9 12 12 11 13 13 11 9 8 7 12 12 12 13 16 18 17 19 22 20 17 18 22 21 21 24 22 19 18 15 15 17 18 19 20 17 14 13 16 18 14 12 13 14 15 16 14 14 12 9 10 10 10 10 8 9 14 16 15 15 12 10 11 12 12 13 15 17 17 16 17 21 24 24 21 18
14 13 12 11 10 10 11 13 11 10 9 8 11 15 13 10 13 16 16 13 7 2 5 8 10 12 14 17 17 17 20 21 19 19 21 21 21 24 24 21 19 17 15 15 16 18 18 18 17 15 17 19 16 15 15 15 17 18 16 16 12 6 6 6 6 7 8 11 14 13 11 9 6 5 8 13 13 11 10 14 18 16 15 18 21 21 19 19
15 14 14 12 10 10 10 12 12 11 9 10 14 16 15 14 13 14 17 20 17 10 7 7 7 11 14 16 17 17 20 21 20 21 21 22 22 22 24 23 21 20 16 14 15 17 15 15 18 19 17 19 20 19 16 12 16 19 18 16 14 10 7 6 5 5 4 7 11 10 7 6 4 8 10 14 16 15 14 15 17 19 20 20 20 20 18 20
14 14 14 12 11 10 10 11 12 11 10 12 16 16 17 18 15 16 18 19 20 20 17 13 10 12 15 16 17 18 20 20 20 22 22 23 24 23 24 25 23 22 19 15 13 16 16 14 16 19 17 18 21 21 18 14 13 16 18 18 16 14 12 7 4 4 4 4 6 7 5 3 5 9 14 17 18 18 15 15 16 17 20 21 19 19 20 21
13 12 11 11 10 8 8 9 10 11 11 13 17 18 21 19 16 17 16 15 16 18 19 18 15 15 15 15 17 18 20 20 21 23 23 24 25 23 22 23 24 25 22 17 13 13 15 14 13 18 18 18 19 18 18 17 11 8 15 19 16 14 14 9 6 7 5 4 5 8 5 4 4 7 14 18 19 17 11 10 13 15 17 16 14 17 20 20
12 10 10 9 8 7 7 8 8 10 12 15 19 20 21 20 19 19 18 16 16 15 17 19 17 18 17 16 17 17 18 19 20 21 21 21 23 24 23 21 22 25 24 21 16 11 12 12 9 14 17 18 17 15 17 18 13 9 12 15 12 12 15 13 6 3 4 6 6 10 10 10 8 8 13 14 16 15 10 8 12 16 18 19 17 19 19 17
10 10 9 6 4 6 8 8 8 10 11 16 21 22 20 20 20 21 21 21 20 18 16 18 17 17 18 18 17 17 16 18 20 19 18 19 19 20 22 21 21 24 24 22 18 11 10 12 12 13 16 18 18 15 17 19 18 15 11 10 8 7 9 11 6 2 4 5 5 10 15 13 7 7 14 13 13 15 14 14 14 14 18 20 21 23 20 18
8 8 7 5 5 7 9 9 10 10 13 17 20 21 21 22 21 21 21 21 21 19 18 18 18 17 17 17 17 17 17 18 18 18 17 16 16 18 20 17 14 19 23 23 20 13 9 9 11 11 12 14 18 18 17 17 19 18 13 11 11 8 7 8 7 7 7 4 3 9 10 4 5 3 11 14 18 19 17 18 16 12 14 16 19 23 20 17
7 7 8 9 7 9 11 11 11 11 15 19 20 19 19 19 20 21 21 21 20 19 19 18 18 18 18 18 18 16 15 16 16 16 14 12 12 16 20 15 10 13 20 22 22 18 13 10 10 9 9 11 16 20 18 15 16 17 16 15 13 12 11 10 10 11 9 5 3 5 3 6 8 3 10 14 17 17 15 16 16 14 14 15 18 19 15 14
6 5 8 10 9 10 11 10 11 12 16 19 19 19 19 18 19 19 20 21 20 19 18 17 18 18 18 19 19 17 14 13 14 15 15 14 13 14 15 13 9 10 15 19 20 18 16 15 13 11 12 14 14 14 15 16 17 17 17 17 16 14 12 8 8 10 10 8 4 2 1 5 6 5 10 15 16 12 10 12 12 12 16 20 19 15 13 11
7 5 8 12 12 11 10 9 10 11 15 18 18 18 18 17 18 19 18 18 18 18 18 19 20 18 17 17 15 16 15 14 13 13 15 16 13 12 11 11 10 8 10 15 14 13 13 12 12 15 16 17 14 9 8 12 17 20 19 16 17 18 15 10 7 9 13 11 6 5 2 4 4 6 12 19 19 14 10 8 9 9 11 17 18 15 15 14
6 6 11 11 10 9 8 9 11 12 16 18 18 18 18 17 17 18 17 15 15 15 15 18 20 19 17 15 12 12 13 13 11 11 13 14 12 11 13 15 16 9 9 13 12 12 14 10 9 13 14 17 17 13 11 11 12 16 18 15 15 16 16 17 14 11 11 8 6 7 3 5 8 9 12 17 15 12 10 8 9 10 9 10 11 11 14 14
4 6 9 9 8 9 8 9 12 13 14 15 17 18 19 19 17 14 16 15 14 14 15 17 18 19 18 15 13 13 12 12 11 8 9 10 10 10 12 17 21 12 9 13 12 13 15 12 11 10 7 11 14 11 13 13 11 11 14 15 15 13 12 14 14 12 9 7 8 6 1 5 9 9 10 14 14 11 10 9 9 12 11 9 10 10 9 11
5 7 7 8 12 11 7 9 12 13 13 13 15 15 14 17 16 12 14 15 14 15 15 16 16 17 18 17 17 17 14 14 13 8 6 6 6 6 9 16 23 14 8 13 13 11 11 11 12 11 6 6 7 5 7 8 9 13 14 13 15 17 15 11 9 9 9 9 9 6 3 6 8 8 8 13 18 16 12 10 11 13 14 12 11 11 8 10
6 6 5 7 11 10 6 9 12 14 13 13 14 12 10 13 14 12 13 14 14 14 13 13 13 13 13 15 17 17 16 16 15 11 8 5 4 6 9 14 19 13 7 11 12 9 9 10 12 13 10 6 5 4 4 2 7 13 16 15 14 15 16 15 11 8 7 7 7 5 5 10 10 11 11 13 19 18 14 14 14 14 14 13 12 11 10 12
6 6 7 7 8 7 7 10 12 13 11 10 10 9 9 9 9 9 10 10 10 11 10 11 11 9 10 12 14 14 14 15 16 15 12 8 5 5 8 12 14 12 9 10 10 9 9 11 12 13 13 10 7 7 8 5 3 12 17 16 15 13 11 14 15 12 9 8 6 4 8 14 14 13 11 11 15 14 12 15 16 15 15 15 14 12 12 14
4 7 6 6 6 7 10 12 11 9 6 4 5 6 7 7 5 6 5 6 6 7 8 9 10 10 11 11 13 14 13 13 14 15 13 9 5 5 9 12 13 15 13 9 9 10 9 11 12 12 14 14 11 10 11 11 11 8 11 14 14 14 11 9 10 13 12 8 6 9 15 18 15 13 12 12 15 14 12 14 16 16 16 15 15 14 14 15
3 5 5 7 10 12 13 14 13 9 3 2 3 1 2 2 1 2 1 3 4 3 5 8 9 11 11 11 13 13 12 12 12 9 7 5 2 5 9 11 9 12 13 9 8 11 9 9 10 10 10 13 12 11 11 12 16 17 10 7 11 12 11 9 5 4 6 6 10 17 19 18 14 13 14 15 17 16 14 15 15 14 14 15 16 16 16 16
1 4 5 7 14 18 15 14 15 11 4 1 4 3 4 6 6 5 6 4 3 1 3 5 5 7 8 9 8 4 4 8 9 5 3 5 3 2 6 7 2 5 10 10 10 12 11 8 9 9 8 9 9 8 8 8 10 14 16 10 5 9 9 8 4 3 6 12 19 23 22 19 15 14 15 17 18 17 17 18 17 14 14 17 17 18 19 19
3 6 8 7 9 15 14 13 16 14 6 2 5 7 7 9 7 5 7 8 6 4 6 7 4 4 3 3 3 2 3 8 8 4 3 5 4 3 3 5 3 2 6 11 13 13 10 8 9 10 8 7 8 7 5 5 5 10 15 17 13 4 6 7 4 2 5 16 24 24 22 20 18 19 19 18 18 18 18 19 18 18 18 17 15 18 20 22
6 8 10 10 8 10 11 11 14 17 11 3 5 4 5 9 9 4 3 5 7 6 7 9 5 2 3 3 6 7 7 10 12 11 9 9 7 5 5 7 7 5 7 12 13 9 6 7 9 10 9 7 7 7 5 4 3 5 9 13 17 14 4 5 4 1 5 12 19 18 17 18 20 22 22 21 21 21 20 21 21 20 21 21 20 21 23 24
Wind_Direction
285 285 285 285 285 286 288 290 292 294 295 296 298 299 300 301 302 301 302 301 300 297 295 292 290 289 287 286 285 283 280 277 274 272 270 266 264 264 261 259 258 256 251 246 243 240 235 231 226 219 215 211 211 205 205 219 220 223 230 237 243 244 246 241 246 260 255 247 250 311 250 242 256 242 246 225 215 227 226 218 219 227 231 220 199 190 184 180
286 285 285 285 285 287 288 289 290 291 292 294 295 296 298 299 299 300 300 299 299 298 296 293 290 287 286 285 283 282 281 278 277 275 271 267 265 262 260 259 256 254 252 248 243 240 235 230 224 219 214 210 217 216 210 218 220 220 225 235 239 239 242 238 250 270 269 256 292 314 273 242 250 233 238 221 220 224 212 221 222 222 223 211 199 188 181 182
288 287 286 287 287 288 288 289 289 290 292 292 293 294 295 296 297 298 298 298 297 296 296 294 291 288 285 283 281 282 281 282 282 274 268 268 266 261 259 257 255 253 248 243 234 231 227 221 219 215 213 212 219 223 219 219 220 222 225 234 238 240 244 246 265 272 272 335 10 339 248 211 250 238 247 238 231 221 214 232 226 216 210 200 194 186 182 182
289 289 289 289 289 289 289 290 290 290 291 291 292 293 293 294 295 296 296 296 296 296 296 294 293 289 285 282 281 280 282 289 281 272 268 267 265 261 259 255 253 250 245 240 230 221 206 197 212 212 212 218 220 222 223 219 219 223 227 234 236 239 245 250 273 268 259 272 268 320 16 256 262 238 249 246 237 220 206 225 233 223 209 196 186 182 183 183
290 290 290 290 290 290 290 290 290 291 291 291 291 292 293 293 293 293 295 295 295 296 294 295 294 290 287 282 279 277 281 291 271 270 272 267 266 263 258 254 251 248 239 236 229 213 190 186 208 217 216 221 222 224 226 221 220 227 231 236 239 241 246 254 281 274 252 250 235 231 286 303 270 234 251 238 243 233 204 197 238 239 214 195 184 179 184 186
290 290 291 291 291 291 290 290 291 291 290 290 291 292 292 292 292 293 293 294 295 295 294 294 293 291 289 282 279 273 252 217 263 273 275 270 272 269 261 255 250 247 237 231 228 209 189 191 207 217 220 224 225 226 228 224 223 231 237 239 243 247 253 260 276 275 243 237 235 239 268 291 269 259 252 226 237 247 223 188 207 235 206 185 180 179 186 193
290 291 291 292 293 292 291 291 290 290 290 290 291 292 293 293 293 292 292 294 294 294 293 292 292 290 287 282 276 268 249 228 255 268 272 273 272 270 269 263 250 245 237 227 226 208 190 199 211 218 223 228 230 230 231 229 227 233 240 242 245 249 253 255 258 269 252 244 246 245 259 266 251 252 243 227 217 200 201 172 185 220 201 182 182 183 189 201
292 292 292 294 294 294 293 292 291 291 290 291 292 292 294 295 295 294 294 294 293 293 293 290 290 287 284 282 271 267 266 246 250 259 268 270 267 266 267 264 255 243 234 224 219 202 194 208 214 219 227 232 234 235 234 235 234 234 240 243 246 248 250 251 247 252 263 253 242 235 245 249 236 241 246 231 207 171 159 175 187 223 208 193 196 196 200 209
293 293 294 294 295 295 294 294 294 292 292 291 292 293 294 296 296 297 297 298 296 293 292 289 286 284 279 274 266 255 248 253 257 259 261 264 263 262 260 257 254 242 226 223 211 191 198 215 218 220 227 236 239 240 239 239 238 236 242 245 245 247 249 250 243 242 249 252 241 233 239 241 233 242 252 229 207 192 195 200 211 238 236 212 207 213 217 214
293 294 294 294 295 295 295 295 295 294 293 291 291 293 294 296 297 298 300 301 298 294 291 287 283 281 275 267 250 223 236 253 264 264 253 258 262 256 254 249 245 238 221 219 204 189 202 218 221 227 233 240 243 244 242 242 244 241 245 247 244 246 248 249 246 242 243 244 240 238 240 239 234 239 241 225 213 213 205 203 216 237 257 232 211 220 228 223
293 293 293 294 294 295 295 296 296 295 294 292 290 292 293 297 298 300 301 300 299 295 287 283 280 275 270 263 243 228 242 245 260 269 259 253 258 253 251 246 237 231 220 212 197 192 207 217 221 234 240 242 244 249 249 246 247 247 249 250 244 246 247 245 244 241 239 238 236 237 241 240 234 231 230 227 216 215 211 205 211 225 252 241 219 221 231 237
293 293 293 294 294 295 295 295 296 296 295 293 291 291 293 296 299 301 299 298 296 292 288 283 278 273 266 264 255 233 243 245 252 266 265 255 255 252 249 248 238 228 216 204 206 217 216 214 226 233 231 241 247 247 252 251 247 246 248 248 248 251 247 241 237 237 235 234 231 230 237 237 232 229 229 231 222 213 214 217 213 209 230 240 234 235 237 238
293 293 293 294 295 295 295 296 295 295 295 294 293 291 292 295 298 299 296 294 291 290 290 285 278 273 266 268 265 235 238 249 251 256 261 260 255 251 250 248 241 229 210 193 207 240 231 214 222 231 226 242 250 238 248 258 247 243 244 245 250 254 249 240 232 232 231 229 223 217 229 234 230 228 225 228 221 211 210 214 213 206 224 238 239 244 245 239
293 294 294 294 295 295 295 295 295 295 294 294 294 293 293 295 297 297 294 291 288 288 289 286 281 274 270 273 269 252 245 246 248 252 258 258 253 251 250 241 236 232 214 198 198 225 240 224 223 229 226 234 242 242 257 261 246 240 240 241 245 249 249 240 228 227 227 226 217 212 227 234 230 224 220 223 214 203 203 209 216 211 222 233 234 242 246 242
294 294 294 294 293 294 294 295 295 295 294 294 293 293 293 295 296 297 295 291 286 286 286 287 283 277 277 275 261 261 261 248 248 253 251 251 251 246 249 246 234 228 221 214 207 210 223 225 228 229 225 229 238 249 259 254 242 234 234 237 237 241 248 244 230 223 221 222 213 213 229 232 233 228 220 222 214 210 214 216 218 217 228 236 238 245 247 242
293 293 293 293 292 293 292 293 294 293 294 294 292 293 294 295 295 296 296 292 286 284 284 287 285 282 282 276 265 264 270 263 256 254 246 244 238 226 243 255 242 229 229 229 222 217 218 221 229 230 227 232 237 242 249 246 237 228 228 237 236 237 243 245 238 221 214 219 212 214 225 229 233 231 224 221 214 213 216 219 217 216 234 243 246 251 250 245
293 293 292 292 291 291 290 291 291 292 294 293 293 294 293 294 295 296 297 293 287 282 282 285 286 285 283 276 277 294 299 284 266 255 246 240 222 196 226 249 247 236 234 234 227 222 223 222 225 228 225 229 233 231 236 239 235 226 224 233 239 239 238 239 240 219 206 213 213 212 218 230 233 228 244 233 212 207 206 213 216 213 232 243 246 250 246 243
293 293 293 292 291 289 289 288 288 290 291 292 294 293 295 296 292 295 298 292 286 280 279 280 278 281 307 296 272 351 320 266 254 252 239 233 208 182 214 236 238 228 228 232 230 221 220 221 219 225 225 225 229 224 226 232 229 224 222 226 235 241 237 236 241 220 199 206 214 211 212 229 238 233 263 241 198 198 202 208 213 214 231 242 245 250 246 244
293 292 292 292 291 290 289 288 286 286 287 290 292 294 298 295 294 301 294 284 281 279 276 272 263 239 236 313 277 243 254 227 236 234 217 223 202 191 215 227 222 215 218 224 230 221 211 214 214 221 224 221 224 223 225 230 229 232 238 233 230 237 236 233 244 221 191 198 211 214 215 226 239 235 243 216 181 193 206 211 215 216 232 242 245 248 248 250
291 290 290 289 289 289 288 288 287 285 284 286 288 293 298 299 313 314 291 278 274 273 263 256 261 240 215 268 303 257 240 237 247 219 206 221 208 200 215 218 212 212 214 214 222 216 203 212 218 219 223 221 224 227 231 235 238 253 274 264 235 231 238 229 238 220 186 195 210 214 221 222 231 231 224 208 196 209 216 218 218 217 230 242 247 248 247 251
290 288 288 287 286 286 285 286 286 284 284 283 284 288 289 293 306 298 283 280 280 273 263 246 251 251 225 225 257 249 245 254 261 220 206 220 212 207 214 209 205 211 215 209 211 209 204 218 224 222 226 228 228 230 237 243 249 260 277 281 249 223 236 230 230 219 184 192 211 210 220 223 223 226 223 211 203 212 219 220 220 220 224 232 245 249 247 247
289 288 287 286 285 284 283 282 282 283 284 282 281 283 280 274 276 279 280 283 280 267 268 259 244 250 238 226 230 228 231 243 250 222 208 216 210 204 211 207 204 212 214 207 206 203 211 225 230 227 229 232 233 231 239 244 250 260 264 275 265 224 227 231 226 221 191 190 213 207 212 225 227 225 226 220 208 207 213 217 220 225 225 226 237 243 245 246
288 288 286 285 285 284 282 281 281 279 279 280 280 279 275 270 274 281 285 286 283 259 259 267 258 255 249 238 231 223 225 228 231 220 210 215 209 198 204 206 207 213 211 207 207 204 215 229 230 229 228 227 232 231 237 239 239 251 250 253 267 241 226 227 208 202 187 184 212 219 221 229 231 229 226 225 223 213 208 214 220 227 228 225 234 241 246 247
288 287 285 285 283 282 282 280 280 278 276 276 276 276 273 271 277 282 286 290 289 276 258 263 258 250 248 241 233 228 229 229 227 218 214 217 207 198 204 206 211 215 212 210 211 214 225 234 227 225 227 223 226 229 232 240 238 243 243 239 252 252 233 222 181 178 186 184 198 224 243 239 233 230 221 222 230 221 208 215 222 228 229 228 236 240 242 239
289 288 285 285 282 282 281 277 279 279 276 272 271 276 273 271 276 282 294 299 293 291 281 267 244 236 239 230 223 225 228 230 223 210 220 227 206 198 209 210 215 218 215 213 215 225 234 240 236 225 219 213 219 229 228 236 244 242 240 237 244 256 253 235 202 189 210 215 205 216 238 242 233 230 225 224 226 217 212 219 223 226 223 226 234 232 231 236
292 289 286 286 282 282 279 277 279 273 281 296 277 261 261 266 268 280 300 300 289 286 267 251 232 227 225 211 209 212 221 232 221 201 222 236 210 196 210 212 217 220 219 218 218 228 237 239 239 222 206 202 218 231 229 228 237 241 238 234 240 252 262 258 230 193 207 228 224 218 228 240 230 226 227 226 220 214 218 223 224 223 220 228 233 229 231 238
295 290 287 287 283 280 276 275 274 257 244 318 260 246 246 258 258 282 304 289 282 271 222 215 226 230 215 203 203 197 208 229 216 199 214 231 212 199 213 214 216 222 221 223 221 225 236 230 221 219 215 217 226 231 228 221 227 237 233 225 232 241 251 260 249 218 220 234 228 215 224 242 238 227 223 220 218 216 216 217 218 217 219 229 228 225 235 240
296 292 290 290 284 280 275 272 271 251 219 227 248 245 238 245 235 252 294 276 283 226 202 208 220 226 207 203 207 200 202 214 206 199 203 220 211 197 212 214 215 225 218 225 228 221 230 222 208 215 223 229 233 232 228 220 226 234 235 236 234 230 234 244 246 235 230 235 234 220 218 235 247 238 223 215 219 217 212 215 219 216 221 230 229 227 235 236
297 295 293 291 284 281 278 273 271 254 237 244 256 245 226 229 213 223 256 257 260 241 221 215 219 224 204 204 211 205 209 214 207 196 192 209 205 191 208 216 218 231 221 225 235 225 223 223 217 217 220 229 233 230 225 220 228 234 240 254 244 224 227 232 236 236 231 230 238 230 221 232 248 235 214 210 218 215 211 219 222 218 222 232 238 237 231 229
299 297 293 289 283 282 280 273 269 257 247 251 253 232 221 210 198 222 228 226 264 261 231 220 224 222 201 203 209 206 209 216 208 188 186 201 202 192 208 220 221 238 230 223 232 230 226 228 227 223 224 229 228 229 229 222 226 231 234 248 243 226 225 225 229 236 237 235 236 233 223 228 249 233 213 215 220 212 211 221 220 215 219 225 234 235 230 234
303 302 297 289 282 282 278 272 269 263 254 245 234 219 210 205 207 226 226 230 272 261 214 212 221 214 203 204 208 205 206 210 201 186 187 196 199 198 208 216 218 234 234 225 227 230 230 228 227 227 227 227 227 238 232 217 219 222 220 232 236 227 221 222 227 229 234 236 236 237 226 223 240 236 216 213 211 207 211 217 208 204 212 218 225 228 231 236
306 306 303 295 286 280 274 272 271 266 256 238 217 200 194 210 220 226 231 242 275 247 208 216 219 209 207 207 210 207 204 209 203 192 192 195 197 201 206 209 207 214 223 221 220 224 229 231 230 230 229 225 228 235 222 209 217 219 216 224 231 223 215 221 224 220 226 231 231 236 233 228 231 229 214 193 189 205 215 213 200 197 215 222 224 229 234 236
306 306 304 299 291 281 269 268 268 260 252 230 203 189 193 221 227 223 229 234 246 224 204 233 229 214 212 213 217 211 207 213 207 198 200 201 202 205 207 210 206 209 221 219 215 218 222 228 229 225 225 222 220 222 213 204 214 221 220 220 222 220 217 223 220 219 228 230 227 229 239 241 215 184 191 185 193 204 192 200 207 211 225 227 225 231 238 237
305 306 304 299 294 286 271 263 259 251 245 222 195 187 205 230 233 227 231 234 241 253 258 261 242 226 225 224 224 214 211 216 208 203 206 204 207 209 208 213 211 213 229 230 222 221 219 223 222 216 216 214 212 220 222 209 209 217 221 225 227 220 217 226 229 233 242 236 228 217 224 237 177 138 153 171 191 192 164 168 193 206 216 221 225 228 230 235
306 304 301 300 295 286 274 266 256 244 238 213 193 197 216 228 230 232 236 239 244 252 256 256 247 240 237 230 230 223 216 218 209 206 211 208 211 212 209 213 213 212 223 228 227 227 228 231 220 211 212 210 211 222 231 234 225 213 214 226 230 220 217 227 246 266 308 304 251 222 213 196 149 158 175 178 182 192 197 199 202 213 222 223 227 226 224 232
308 303 301 305 297 284 275 268 255 243 234 206 199 215 224 225 227 232 240 246 247 253 258 255 243 240 242 232 232 231 222 222 215 210 215 215 216 217 213 213 213 212 216 218 219 223 233 242 221 205 209 210 214 222 224 233 244 218 213 223 225 221 216 216 239 245 256 291 242 210 192 131 130 168 187 193 192 196 212 221 217 217 206 200 211 224 228 229
312 311 313 314 300 296 297 280 260 248 232 206 210 226 230 232 239 241 246 253 255 257 259 260 248 236 239 236 233 231 221 224 225 218 218 220 222 222 219 218 215 213 216 218 224 231 241 259 239 208 213 211 212 222 220 224 235 226 223 228 230 229 217 209 225 226 231 263 227 192 182 184 205 192 179 203 217 208 193 184 204 207 189 180 193 211 220 227
314 319 318 306 282 299 309 294 272 252 232 215 221 231 234 239 245 246 252 261 266 265 259 262 258 242 238 238 236 232 222 224 228 225 224 224 227 224 220 224 220 214 215 219 228 236 238 257 256 232 226 212 204 220 226 222 225 228 236 243 243 249 226 214 221 197 206 245 239 215 203 195 211 190 172 188 203 198 202 202 197 196 196 198 207 216 223 230
322 328 313 285 279 299 304 295 278 252 228 222 229 236 240 244 246 248 255 262 266 264 256 256 257 250 244 243 243 239 231 228 225 225 231 229 231 229 224 227 225 215 214 216 221 226 224 242 253 242 231 210 201 216 228 224 223 231 242 245 238 239 241 244 252 241 229 222 229 234 217 152 53 132 169 176 183 188 204 212 206 199 200 205 212 219 220 217
330 326 295 285 290 298 300 291 274 251 231 229 235 242 247 252 253 253 256 259 262 258 252 253 255 252 249 249 249 243 238 236 229 231 241 239 242 240 231 235 244 217 211 214 216 217 216 226 245 247 240 234 218 212 219 227 226 227 230 235 235 224 218 231 244 244 248 253 238 236 221 63 54 119 172 177 186 191 194 196 199 202 195 190 198 202 195 184
344 327 285 288 298 300 302 291 270 250 239 240 243 247 252 257 260 261 258 254 257 257 252 255 262 260 260 261 252 245 248 245 234 237 244 243 246 243 230 235 249 222 211 216 214 205 203 212 230 242 245 249 240 216 216 230 233 230 225 225 232 229 216 217 230 232 241 252 263 262 167 91 83 133 172 183 189 186 175 173 170 173 175 170 172 178 171 168
6 343 283 292 302 303 303 287 271 257 246 247 249 250 254 258 259 262 260 251 250 255 251 252 261 264 271 277 259 249 256 249 229 228 237 243 249 241 219 207 212 223 223 217 211 205 202 204 213 226 237 246 252 251 245 245 243 241 236 232 235 233 222 215 223 230 235 240 253 259 208 126 146 163 166 182 192 187 177 172 154 146 155 153 150 159 165 166
3 320 293 295 301 310 310 287 274 264 257 257 257 256 255 257 259 258 257 255 254 259 255 250 253 253 259 272 265 255 265 263 242 225 230 248 258 237 214 195 190 206 225 211 214 227 221 217 219 220 233 242 246 258 268 271 267 254 247 247 247 243 230 225 231 242 239 225 225 241 216 138 172 174 167 178 183 182 183 183 169 158 152 145 139 152 160 150
340 313 304 301 309 324 320 300 288 276 274 274 265 259 256 260 264 256 252 256 255 256 257 252 249 246 247 255 255 251 260 266 257 231 222 248 261 241 229 215 201 204 233 218 221 236 223 223 238 236 238 237 231 243 258 270 298 295 269 252 248 251 244 238 252 270 265 242 237 248 87 126 166 171 181 179 161 160 171 170 175 166 155 151 147 154 156 133
348 345 331 311 320 328 311 298 298 286 288 289 272 261 260 262 262 253 254 260 256 252 257 258 253 247 244 245 246 247 252 256 254 250 235 236 244 237 239 224 205 199 242 230 217 232 225 210 220 230 248 248 231 239 255 272 318 321 301 278 261 255 249 247 256 260 260 257 256 256 120 138 163 157 167 169 163 170 170 157 169 167 155 157 157 155 147 127
4 348 323 302 315 322 304 298 300 289 285 286 277 267 260 262 257 248 253 260 257 255 260 267 268 262 255 251 246 245 248 248 248 255 250 216 215 233 223 212 200 190 230 234 215 221 225 213 214 223 235 241 230 229 227 277 350 344 328 308 291 278 264 257 247 227 230 236 243 255 188 165 158 154 157 157 164 176 173 159 168 173 166 162 156 149 136 127
2 307 298 313 318 319 321 313 303 296 288 278 277 264 251 261 257 243 251 258 256 256 256 264 269 267 270 266 255 248 250 248 243 245 241 217 211 225 205 205 214 215 222 228 218 207 210 221 222 221 227 223 208 212 215 218 317 355 348 326 311 313 294 266 254 244 247 234 214 210 180 160 144 150 164 157 158 166 165 168 178 182 175 162 153 152 142 134
346 287 308 354 340 322 337 340 330 322 309 283 286 259 242 266 260 226 247 263 250 250 254 262 262 253 257 263 256 254 258 255 248 245 244 236 210 192 202 210 215 216 217 218 212 205 212 225 221 219 230 230 221 223 228 235 247 287 346 351 335 326 326 314 278 257 260 258 202 160 158 154 144 154 166 160 162 167 168 177 180 174 170 164 158 155 146 146
317 302 344 22 4 346 350 358 358 350 340 79 52 307 226 336 330 177 298 270 214 210 258 267 263 253 255 258 253 251 248 250 259 257 243 240 174 166 214 224 199 194 207 208 199 205 216 224 216 218 232 229 225 231 237 250 254 250 261 342 357 345 339 348 344 244 234 218 172 159 158 155 150 162 169 164 169 176 176 180 177 161 150 147 154 161 156 159
350 11 22 25 4 355 359 3 1 357 343 117 94 97 91 59 59 68 39 37 125 103 320 297 264 250 261 261 252 244 214 230 261 284 243 238 249 184 216 231 220 190 204 212 215 213 221 232 216 211 227 226 217 221 234 251 258 242 231 242 321 9 8 352 7 107 152 158 153 160 168 163 154 166 177 176 179 184 183 186 189 181 159 142 150 171 175 173
91 60 60 64 12 354 0 4 2 5 10 156 138 113 84 48 42 70 62 56 68 43 357 343 294 248 286 286 233 147 171 206 224 242 224 223 246 278 231 221 266 281 219 228 227 212 215 236 221 208 224 230 211 208 220 229 251 247 233 232 242 265 23 360 339 57 148 161 159 165 171 168 169 182 189 189 192 197 193 189 190 193 189 178 179 194 198 197
90 78 69 65 27 358 9 11 2 5 17 90 145 108 55 26 13 26 70 47 38 36 21 7 341 311 3 309 243 225 218 220 226 234 234 221 219 252 259 233 239 256 253 249 242 224 212 218 213 214 223 224 209 198 198 206 230 252 240 236 238 235 249 318 289 189 151 170 171 170 171 174 185 194 196 197 199 204 205 198 190 189 196 203 207 210 212 213
Height
3100 3100 3100 3100 3099 3099 3099 3098 3098 3097 3097 3096 3096 3095 3095 3094 3094 3093 3093 3093 3092 3092 3091 3091 3091 3090 3090 3090 3090 3090 3090 3090 3090 3090 3091 3091 3091 3092 3093 3093 3094 3094 3095 3095 3096 3097 3098 3099 3101 3102 3103 3105 3106 3108 3110 3112 3114 3116 3116 3115 3113 3112 3111 3110 3109 3109 3109 3108 3108 3107 3109 3110 3112 3112 3112 3114 3114 3116 3115 3112 3112 3112 3116 3120 3121 3122 3123 3123
3099 3099 3099 3098 3098 3098 3097 3097 3097 3096 3096 3095 3095 3094 3094 3093 3093 3092 3092 3091 3091 3091 3090 3090 3089 3089 3089 3089 3089 3089 3089 3089 3089 3089 3089 3089 3090 3091 3091 3092 3092 3093 3094 3094 3095 3096 3097 3098 3100 3101 3102 3104 3106 3107 3109 3111 3113 3113 3114 3113 3111 3110 3109 3108 3108 3109 3108 3107 3107 3107 3109 3111 3112 3112 3111 3112 3114 3115 3113 3111 3111 3113 3116 3119 3120 3121 3123 3122
3098 3098 3097 3097 3097 3097 3096 3096 3096 3095 3095 3094 3094 3093 3093 3092 3092 3091 3091 3090 3090 3089 3089 3088 3088 3088 3088 3088 3087 3088 3088 3088 3087 3086 3087 3088 3088 3089 3090 3090 3091 3092 3093 3093 3094 3095 3096 3098 3099 3100 3102 3104 3106 3107 3109 3110 3111 3111 3111 3110 3109 3109 3108 3107 3108 3108 3107 3106 3108 3108 3109 3110 3110 3111 3111 3111 3113 3114 3113 3111 3111 3115 3116 3118 3120 3120 3121 3121
3097 3097 3096 3096 3096 3095 3095 3095 3094 3094 3094 3093 3093 3092 3092 3091 3090 3090 3089 3089 3088 3088 3087 3087 3087 3086 3086 3086 3086 3087 3087 3087 3085 3083 3086 3087 3087 3088 3088 3089 3090 3091 3091 3092 3093 3094 3095 3097 3099 3100 3102 3104 3105 3107 3108 3108 3110 3109 3109 3107 3107 3109 3107 3107 3108 3108 3108 3108 3109 3109 3109 3110 3110 3111 3111 3112 3112 3112 3113 3113 3111 3115 3116 3117 3119 3119 3119 3120
3096 3095 3095 3095 3094 3094 3094 3093 3093 3093 3093 3092 3092 3091 3091 3090 3089 3089 3088 3088 3087 3087 3086 3086 3085 3085 3085 3085 3085 3085 3087 3087 3083 3082 3085 3086 3086 3087 3087 3088 3089 3089 3090 3091 3091 3092 3094 3097 3099 3101 3102 3103 3104 3106 3106 3107 3109 3108 3107 3106 3106 3107 3106 3107 3108 3107 3107 3108 3108 3109 3110 3110 3110 3111 3112 3112 3111 3111 3113 3114 3112 3113 3116 3116 3117 3118 3119 3119
3095 3094 3094 3093 3093 3093 3092 3092 3092 3092 3091 3091 3090 3090 3089 3089 3088 3087 3087 3086 3086 3085 3085 3084 3084 3084 3084 3084 3084 3084 3085 3085 3082 3081 3084 3085 3085 3086 3086 3087 3088 3088 3089 3090 3090 3091 3093 3096 3099 3100 3101 3102 3103 3104 3105 3106 3107 3106 3105 3106 3105 3105 3105 3106 3107 3106 3106 3106 3107 3109 3110 3110 3110 3111 3111 3111 3112 3111 3111 3114 3113 3111 3114 3116 3116 3117 3118 3118
3094 3093 3093 3092 3092 3091 3091 3090 3090 3090 3090 3089 3089 3088 3088 3087 3087 3086 3085 3085 3084 3084 3084 3083 3083 3082 3082 3082 3082 3083 3083 3084 3082 3080 3082 3084 3084 3085 3085 3086 3086 3087 3088 3089 3089 3090 3092 3095 3097 3100 3101 3101 3102 3103 3104 3105 3106 3104 3104 3104 3104 3104 3104 3105 3106 3105 3105 3106 3107 3109 3110 3110 3111 3111 3111 3112 3112 3111 3110 3113 3113 3111 3114 3116 3116 3117 3116 3115
3092 3092 3091 3091 3090 3090 3089 3089 3089 3089 3088 3088 3087 3087 3086 3086 3085 3085 3084 3083 3083 3082 3082 3082 3081 3081 3081 3081 3081 3081 3082 3082 3080 3079 3081 3082 3083 3084 3084 3085 3085 3086 3087 3088 3088 3090 3092 3094 3096 3099 3100 3100 3101 3102 3103 3104 3103 3103 3103 3103 3103 3103 3104 3104 3105 3105 3104 3105 3107 3108 3109 3109 3110 3111 3111 3112 3111 3111 3111 3112 3112 3112 3114 3116 3117 3117 3114 3112
3091 3090 3090 3089 3089 3089 3088 3088 3087 3087 3087 3086 3086 3085 3085 3084 3084 3083 3083 3082 3081 3081 3081 3080 3080 3080 3079 3079 3079 3081 3081 3080 3078 3079 3080 3080 3081 3082 3083 3084 3084 3085 3086 3087 3088 3089 3091 3094 3095 3097 3099 3100 3100 3101 3102 3102 3101 3101 3101 3102 3102 3102 3103 3103 3103 3104 3104 3105 3106 3107 3108 3108 3110 3110 3111 3112 3111 3111 3112 3113 3112 3112 3113 3116 3116 3113 3112 3113
3089 3089 3088 3088 3088 3087 3087 3086 3086 3085 3085 3085 3084 3084 3084 3083 3083 3082 3081 3081 3080 3079 3079 3079 3079 3078 3078 3078 3078 3079 3079 3078 3076 3077 3079 3079 3079 3081 3081 3082 3083 3084 3085 3086 3087 3088 3091 3093 3095 3097 3098 3098 3099 3100 3100 3100 3099 3100 3100 3100 3100 3100 3101 3101 3101 3102 3103 3104 3105 3106 3107 3108 3109 3110 3110 3110 3111 3111 3112 3114 3114 3112 3111 3114 3114 3110 3112 3115
3088 3087 3087 3086 3086 3086 3085 3085 3084 3084 3084 3083 3083 3082 3082 3082 3081 3081 3080 3079 3079 3078 3077 3077 3077 3076 3076 3076 3076 3077 3077 3077 3076 3075 3077 3078 3078 3079 3080 3081 3082 3083 3084 3085 3086 3088 3090 3093 3095 3097 3097 3097 3097 3098 3098 3098 3098 3098 3098 3098 3098 3099 3099 3099 3100 3101 3102 3103 3104 3105 3106 3107 3107 3108 3109 3109 3110 3111 3111 3113 3115 3114 3109 3109 3112 3112 3115 3117
3086 3086 3085 3085 3084 3084 3084 3083 3083 3082 3082 3082 3081 3081 3081 3080 3080 3080 3079 3078 3077 3077 3076 3075 3075 3075 3074 3074 3074 3075 3075 3076 3076 3074 3074 3076 3076 3077 3078 3079 3080 3082 3083 3084 3086 3088 3089 3091 3093 3094 3095 3096 3096 3096 3096 3096 3096 3096 3097 3097 3096 3097 3096 3097 3098 3099 3100 3101 3102 3104 3104 3104 3105 3106 3107 3107 3109 3110 3111 3112 3114 3115 3111 3106 3109 3112 3115 3117
3084 3084 3083 3083 3083 3082 3082 3081 3081 3081 3080 3080 3080 3079 3079 3079 3079 3078 3078 3077 3076 3075 3074 3074 3073 3073 3072 3072 3073 3073 3073 3073 3074 3073 3073 3074 3075 3076 3077 3078 3079 3080 3081 3083 3086 3088 3088 3088 3090 3091 3092 3094 3094 3095 3094 3094 3094 3094 3095 3095 3095 3094 3093 3093 3096 3097 3098 3099 3101 3102 3101 3102 3103 3104 3106 3106 3107 3108 3109 3112 3112 3115 3113 3107 3106 3110 3114 3116
3083 3082 3082 3081 3081 3081 3080 3080 3079 3079 3079 3078 3078 3078 3078 3078 3077 3077 3076 3075 3074 3074 3073 3072 3072 3071 3070 3071 3071 3070 3071 3072 3071 3071 3072 3073 3074 3075 3076 3077 3078 3079 3080 3082 3084 3086 3086 3087 3088 3089 3089 3090 3092 3093 3093 3093 3093 3093 3093 3093 3092 3091 3090 3091 3094 3094 3096 3097 3099 3100 3099 3099 3100 3102 3104 3104 3106 3107 3108 3111 3111 3113 3112 3105 3105 3109 3112 3114
3081 3081 3080 3080 3079 3079 3079 3078 3078 3077 3077 3077 3077 3076 3076 3076 3076 3075 3075 3074 3073 3073 3072 3071 3070 3069 3068 3069 3069 3068 3069 3070 3069 3070 3071 3071 3073 3074 3075 3076 3077 3078 3079 3080 3081 3083 3084 3085 3086 3086 3087 3089 3090 3091 3091 3091 3091 3091 3091 3090 3090 3089 3088 3089 3090 3091 3093 3095 3097 3098 3097 3098 3099 3099 3101 3102 3104 3105 3107 3109 3110 3112 3109 3103 3105 3109 3111 3112
3080 3079 3079 3078 3078 3078 3077 3077 3076 3076 3075 3075 3075 3075 3075 3075 3074 3074 3073 3072 3072 3071 3071 3070 3069 3068 3068 3067 3067 3067 3068 3068 3068 3068 3069 3070 3072 3074 3075 3075 3076 3076 3077 3079 3079 3081 3082 3083 3084 3085 3086 3088 3089 3089 3090 3089 3088 3088 3088 3087 3087 3087 3086 3086 3086 3087 3090 3092 3094 3094 3095 3096 3096 3097 3098 3100 3101 3102 3105 3107 3108 3110 3105 3101 3105 3108 3110 3110
3078 3078 3077 3077 3076 3076 3076 3075 3075 3074 3074 3074 3073 3073 3073 3073 3073 3072 3071 3071 3070 3070 3069 3069 3068 3067 3067 3066 3066 3067 3067 3066 3067 3067 3067 3069 3071 3074 3075 3075 3075 3076 3076 3077 3078 3079 3080 3081 3083 3083 3085 3086 3087 3088 3088 3086 3085 3085 3085 3085 3085 3084 3084 3083 3082 3083 3086 3089 3091 3092 3094 3094 3094 3096 3096 3096 3098 3100 3103 3105 3107 3107 3102 3100 3104 3106 3108 3109
3076 3076 3075 3075 3075 3074 3074 3074 3073 3073 3072 3072 3072 3072 3072 3071 3071 3070 3070 3069 3068 3068 3068 3068 3067 3067 3066 3065 3065 3066 3067 3067 3066 3066 3067 3068 3070 3073 3075 3075 3074 3075 3076 3076 3077 3078 3079 3080 3082 3083 3083 3084 3084 3085 3084 3083 3082 3082 3082 3083 3083 3082 3081 3080 3078 3079 3083 3086 3088 3089 3092 3092 3093 3095 3093 3091 3094 3098 3101 3103 3105 3105 3100 3099 3103 3105 3107 3107
3075 3074 3074 3073 3073 3072 3072 3072 3071 3071 3071 3071 3070 3070 3071 3070 3069 3069 3067 3067 3067 3067 3067 3066 3065 3065 3065 3065 3065 3066 3068 3067 3065 3067 3067 3068 3070 3072 3073 3073 3074 3075 3076 3076 3076 3077 3078 3079 3081 3081 3081 3081 3082 3082 3082 3081 3080 3079 3079 3079 3080 3079 3079 3078 3076 3076 3080 3083 3085 3087 3089 3090 3091 3093 3093 3092 3094 3098 3100 3101 3104 3103 3098 3098 3101 3104 3105 3105
3073 3072 3072 3071 3071 3071 3070 3070 3070 3069 3069 3069 3069 3069 3069 3068 3068 3067 3064 3064 3065 3065 3065 3064 3063 3063 3064 3064 3067 3068 3067 3065 3065 3067 3068 3068 3069 3070 3072 3072 3073 3074 3075 3076 3076 3076 3078 3078 3078 3078 3078 3079 3080 3081 3080 3080 3079 3079 3078 3076 3076 3077 3076 3076 3075 3075 3077 3080 3083 3085 3087 3089 3090 3091 3092 3093 3095 3097 3099 3099 3101 3102 3099 3097 3098 3101 3104 3104
3071 3070 3070 3069 3069 3068 3068 3068 3068 3068 3068 3068 3067 3067 3068 3067 3068 3066 3062 3061 3062 3062 3062 3062 3061 3061 3062 3063 3067 3069 3066 3064 3065 3066 3067 3067 3068 3069 3070 3071 3072 3073 3073 3075 3076 3076 3077 3076 3076 3076 3077 3078 3079 3080 3079 3079 3079 3079 3077 3074 3073 3073 3074 3074 3074 3075 3076 3078 3081 3083 3086 3087 3088 3090 3090 3091 3092 3094 3097 3098 3099 3101 3100 3099 3096 3096 3102 3103
3069 3068 3067 3067 3066 3066 3066 3066 3066 3066 3066 3066 3066 3066 3066 3066 3065 3065 3062 3059 3060 3060 3059 3059 3059 3059 3060 3061 3064 3066 3066 3064 3064 3065 3066 3066 3066 3068 3069 3069 3071 3072 3072 3074 3075 3076 3075 3074 3074 3075 3076 3077 3077 3078 3078 3078 3078 3078 3077 3075 3071 3070 3072 3072 3072 3074 3075 3077 3079 3081 3084 3085 3087 3088 3089 3090 3089 3090 3093 3095 3097 3098 3099 3100 3096 3092 3097 3102
3066 3066 3065 3064 3064 3064 3064 3064 3064 3064 3064 3064 3064 3064 3064 3064 3063 3063 3061 3058 3057 3058 3057 3056 3057 3056 3057 3059 3061 3063 3063 3063 3064 3064 3064 3064 3065 3067 3068 3069 3069 3071 3072 3072 3073 3073 3073 3072 3072 3074 3075 3076 3076 3076 3077 3076 3077 3077 3076 3075 3072 3070 3070 3070 3071 3073 3075 3077 3080 3081 3082 3084 3085 3086 3087 3089 3089 3089 3090 3092 3095 3096 3096 3099 3095 3091 3096 3099
3064 3064 3063 3062 3062 3061 3061 3062 3062 3062 3062 3062 3063 3063 3062 3062 3062 3061 3060 3057 3055 3055 3055 3054 3055 3055 3056 3058 3059 3060 3060 3061 3062 3064 3062 3062 3064 3066 3067 3068 3069 3070 3070 3070 3071 3071 3070 3070 3071 3072 3073 3074 3075 3075 3076 3076 3076 3076 3075 3075 3073 3071 3071 3071 3072 3074 3076 3077 3080 3082 3083 3082 3083 3083 3084 3087 3087 3088 3089 3090 3093 3094 3096 3096 3093 3091 3094 3094
3062 3061 3061 3060 3060 3059 3059 3059 3060 3060 3060 3061 3061 3061 3061 3061 3061 3060 3059 3057 3053 3052 3053 3052 3052 3054 3055 3056 3057 3058 3059 3059 3059 3062 3061 3059 3063 3065 3066 3068 3067 3068 3068 3069 3070 3069 3069 3069 3070 3070 3070 3072 3074 3074 3075 3076 3075 3075 3074 3074 3073 3072 3071 3072 3073 3074 3077 3078 3079 3083 3082 3080 3080 3081 3083 3084 3085 3086 3087 3089 3091 3092 3095 3093 3090 3091 3091 3091
3060 3059 3059 3058 3058 3057 3057 3057 3058 3059 3059 3060 3059 3059 3060 3059 3060 3060 3059 3057 3053 3051 3052 3051 3051 3052 3053 3054 3055 3057 3058 3056 3056 3060 3060 3058 3062 3064 3065 3066 3066 3066 3067 3068 3068 3068 3068 3068 3069 3069 3069 3071 3073 3073 3074 3074 3075 3073 3072 3074 3074 3072 3072 3072 3073 3074 3076 3077 3079 3082 3081 3079 3078 3079 3081 3082 3083 3084 3085 3088 3089 3091 3094 3090 3088 3090 3089 3090
3058 3057 3057 3056 3056 3055 3055 3055 3056 3057 3058 3058 3057 3057 3058 3058 3059 3059 3059 3058 3052 3048 3049 3050 3050 3050 3051 3053 3053 3054 3055 3054 3054 3057 3058 3057 3060 3062 3063 3064 3065 3064 3065 3067 3066 3065 3066 3067 3068 3069 3069 3070 3071 3071 3072 3073 3073 3071 3071 3073 3073 3073 3073 3072 3072 3073 3075 3077 3078 3079 3080 3078 3076 3075 3077 3079 3081 3082 3084 3086 3087 3090 3092 3086 3085 3088 3089 3092
3056 3056 3055 3055 3054 3053 3054 3053 3054 3055 3055 3055 3054 3056 3056 3057 3059 3059 3060 3059 3051 3046 3047 3048 3048 3049 3050 3051 3051 3051 3053 3053 3053 3054 3057 3057 3058 3061 3060 3061 3063 3063 3064 3064 3063 3063 3064 3065 3066 3068 3068 3069 3069 3069 3070 3071 3071 3069 3070 3071 3071 3072 3073 3072 3072 3073 3075 3076 3075 3076 3078 3077 3074 3073 3074 3076 3079 3079 3081 3084 3085 3088 3089 3083 3083 3086 3089 3093
3054 3054 3054 3053 3052 3052 3052 3052 3052 3053 3053 3052 3053 3055 3056 3057 3058 3058 3061 3058 3048 3045 3046 3046 3047 3048 3049 3050 3049 3050 3051 3053 3053 3053 3055 3056 3056 3059 3059 3060 3061 3062 3063 3063 3062 3063 3064 3064 3065 3066 3067 3067 3067 3068 3068 3069 3069 3069 3069 3069 3069 3070 3071 3072 3073 3073 3074 3074 3074 3074 3076 3075 3073 3071 3073 3074 3076 3077 3080 3082 3083 3086 3086 3083 3082 3085 3088 3092
3053 3052 3052 3052 3051 3050 3050 3050 3050 3051 3051 3051 3053 3054 3055 3056 3057 3058 3059 3055 3047 3044 3045 3044 3046 3047 3048 3048 3048 3048 3050 3052 3052 3052 3054 3055 3055 3057 3058 3060 3061 3061 3061 3061 3061 3062 3062 3063 3063 3064 3065 3065 3066 3066 3066 3067 3067 3068 3069 3069 3068 3069 3069 3071 3071 3072 3073 3072 3072 3073 3074 3075 3073 3070 3071 3073 3074 3075 3078 3080 3082 3084 3083 3083 3084 3083 3084 3090
3051 3051 3050 3050 3049 3049 3049 3048 3048 3049 3049 3050 3051 3053 3054 3055 3056 3056 3053 3049 3046 3043 3042 3043 3045 3045 3046 3047 3047 3047 3049 3050 3051 3051 3052 3054 3055 3055 3056 3058 3059 3059 3059 3059 3060 3061 3061 3061 3062 3062 3063 3063 3065 3065 3064 3065 3066 3067 3068 3068 3068 3068 3068 3068 3069 3071 3072 3071 3071 3071 3072 3073 3072 3069 3069 3071 3073 3076 3078 3079 3081 3080 3080 3082 3084 3083 3083 3089
3049 3049 3049 3048 3048 3047 3047 3046 3047 3048 3048 3049 3050 3051 3053 3054 3053 3051 3048 3048 3045 3040 3040 3042 3043 3044 3044 3045 3046 3046 3047 3048 3049 3050 3051 3051 3053 3053 3054 3055 3056 3057 3057 3056 3057 3058 3059 3060 3060 3061 3061 3062 3063 3064 3063 3065 3065 3066 3067 3067 3067 3066 3067 3067 3067 3068 3068 3068 3068 3069 3069 3069 3069 3068 3069 3071 3073 3075 3077 3078 3078 3078 3079 3081 3083 3083 3084 3088
3048 3047 3047 3046 3046 3046 3045 3045 3045 3046 3046 3048 3048 3049 3052 3052 3048 3047 3047 3047 3042 3038 3040 3041 3041 3042 3044 3044 3044 3045 3046 3046 3047 3049 3049 3050 3051 3051 3052 3053 3054 3055 3054 3055 3056 3056 3056 3058 3058 3059 3059 3060 3061 3061 3061 3062 3064 3064 3064 3065 3065 3065 3067 3067 3065 3065 3065 3065 3066 3067 3067 3067 3067 3068 3070 3071 3073 3074 3075 3076 3076 3078 3080 3081 3081 3083 3085 3086
3046 3046 3045 3045 3044 3044 3044 3044 3044 3045 3045 3046 3047 3048 3050 3048 3045 3045 3046 3044 3041 3040 3040 3041 3041 3042 3042 3042 3043 3044 3044 3045 3046 3047 3048 3048 3049 3049 3050 3051 3052 3053 3053 3054 3054 3053 3053 3054 3055 3056 3057 3058 3059 3059 3059 3060 3061 3062 3063 3063 3063 3063 3066 3066 3064 3064 3064 3063 3064 3066 3066 3066 3068 3070 3071 3071 3072 3073 3074 3075 3075 3077 3080 3080 3080 3082 3083 3082
3044 3044 3043 3043 3043 3042 3042 3042 3042 3043 3044 3045 3046 3047 3046 3044 3043 3044 3042 3041 3041 3040 3040 3040 3041 3041 3040 3041 3041 3042 3042 3043 3044 3045 3045 3046 3046 3046 3047 3048 3050 3051 3052 3052 3052 3052 3051 3050 3051 3053 3055 3056 3057 3057 3058 3059 3059 3060 3061 3062 3061 3062 3064 3064 3063 3064 3065 3064 3064 3065 3066 3066 3068 3070 3071 3070 3071 3072 3073 3074 3075 3076 3077 3078 3079 3080 3079 3078
3043 3042 3041 3041 3041 3040 3040 3040 3041 3042 3042 3043 3044 3044 3042 3041 3042 3041 3040 3040 3040 3039 3039 3038 3039 3039 3039 3039 3039 3040 3040 3041 3042 3043 3043 3043 3044 3044 3045 3046 3047 3049 3050 3050 3050 3050 3050 3049 3050 3052 3053 3055 3056 3057 3057 3058 3058 3058 3059 3059 3059 3061 3062 3063 3063 3063 3065 3066 3065 3064 3065 3067 3068 3069 3070 3070 3071 3072 3074 3074 3074 3075 3076 3077 3078 3077 3076 3077
3041 3040 3040 3040 3039 3039 3039 3039 3040 3040 3041 3042 3042 3040 3040 3040 3040 3040 3039 3039 3039 3039 3038 3037 3036 3037 3037 3037 3037 3038 3038 3039 3041 3041 3041 3042 3042 3043 3044 3045 3046 3047 3048 3049 3049 3049 3049 3049 3049 3050 3051 3053 3055 3056 3057 3057 3058 3058 3058 3058 3058 3060 3060 3062 3063 3063 3065 3065 3062 3061 3064 3067 3068 3067 3067 3069 3071 3073 3073 3072 3072 3074 3077 3078 3077 3075 3076 3078
3040 3039 3039 3039 3039 3039 3038 3038 3039 3039 3040 3040 3039 3038 3039 3039 3038 3039 3039 3038 3038 3037 3037 3036 3035 3035 3035 3035 3035 3036 3037 3038 3039 3040 3040 3040 3040 3041 3043 3043 3044 3045 3046 3048 3049 3049 3049 3050 3049 3049 3050 3051 3054 3055 3055 3055 3057 3057 3057 3057 3058 3059 3059 3060 3061 3063 3066 3065 3062 3059 3060 3064 3066 3065 3065 3067 3069 3070 3071 3070 3071 3073 3077 3078 3077 3076 3077 3078
3039 3038 3038 3038 3038 3038 3038 3037 3037 3038 3038 3038 3037 3037 3036 3036 3036 3037 3037 3038 3037 3037 3036 3036 3036 3035 3034 3034 3034 3035 3035 3035 3036 3039 3039 3039 3039 3040 3040 3040 3041 3043 3045 3047 3047 3048 3049 3050 3050 3049 3049 3050 3052 3053 3053 3054 3055 3056 3057 3058 3058 3059 3060 3060 3060 3061 3061 3062 3062 3059 3058 3062 3065 3065 3066 3066 3066 3068 3070 3070 3070 3072 3075 3077 3076 3075 3076 3077
3038 3038 3037 3037 3037 3037 3037 3036 3036 3036 3036 3035 3035 3035 3035 3035 3035 3035 3035 3036 3036 3036 3035 3036 3036 3034 3033 3033 3033 3033 3033 3033 3035 3037 3038 3037 3039 3040 3040 3039 3040 3041 3042 3045 3046 3047 3049 3049 3050 3050 3049 3049 3049 3050 3052 3053 3054 3055 3056 3057 3057 3058 3059 3060 3060 3060 3059 3059 3060 3058 3060 3066 3066 3065 3066 3065 3065 3067 3069 3069 3070 3072 3075 3076 3076 3076 3077 3078
3037 3037 3036 3036 3036 3036 3035 3035 3034 3034 3034 3034 3034 3035 3035 3035 3034 3034 3034 3034 3034 3034 3034 3035 3035 3034 3033 3032 3032 3032 3032 3033 3035 3036 3037 3037 3038 3039 3039 3040 3040 3041 3041 3043 3044 3045 3047 3047 3049 3050 3049 3048 3048 3049 3052 3053 3053 3053 3054 3055 3055 3056 3057 3059 3059 3059 3059 3058 3058 3059 3063 3067 3067 3066 3067 3067 3067 3067 3068 3069 3070 3072 3075 3076 3076 3078 3078 3079
3037 3037 3036 3035 3035 3035 3034 3034 3033 3033 3033 3033 3033 3034 3034 3034 3033 3032 3033 3033 3033 3033 3033 3034 3034 3033 3033 3031 3031 3032 3032 3032 3033 3034 3036 3037 3038 3038 3038 3038 3040 3042 3042 3042 3043 3043 3044 3046 3047 3049 3049 3048 3047 3048 3050 3051 3052 3052 3051 3053 3054 3054 3055 3057 3057 3058 3059 3058 3058 3060 3063 3065 3066 3067 3068 3068 3068 3069 3069 3071 3071 3072 3074 3074 3074 3076 3078 3078
3037 3037 3035 3034 3034 3034 3033 3033 3033 3033 3032 3031 3031 3031 3032 3033 3032 3031 3031 3031 3031 3032 3032 3033 3033 3033 3033 3032 3032 3032 3032 3031 3032 3033 3035 3037 3037 3037 3037 3038 3039 3041 3042 3042 3043 3043 3044 3046 3046 3047 3049 3049 3048 3048 3049 3050 3051 3051 3051 3052 3053 3052 3053 3055 3056 3057 3058 3057 3058 3059 3062 3065 3066 3067 3068 3068 3069 3069 3070 3072 3073 3073 3073 3073 3073 3075 3076 3075
3037 3037 3035 3033 3033 3033 3033 3033 3032 3031 3030 3029 3029 3028 3029 3029 3029 3030 3030 3030 3031 3032 3033 3033 3032 3032 3033 3033 3033 3033 3033 3032 3032 3033 3034 3035 3036 3035 3036 3038 3038 3039 3041 3042 3042 3042 3044 3046 3046 3047 3048 3049 3049 3049 3050 3050 3049 3050 3050 3051 3052 3052 3052 3053 3054 3055 3055 3056 3057 3059 3061 3065 3066 3066 3067 3068 3069 3070 3071 3073 3074 3074 3074 3073 3074 3074 3073 3073
3036 3036 3035 3034 3033 3033 3033 3032 3030 3029 3029 3028 3027 3026 3027 3027 3027 3028 3029 3030 3030 3031 3032 3031 3031 3032 3032 3032 3032 3032 3033 3033 3032 3033 3033 3034 3035 3035 3036 3037 3037 3038 3040 3041 3041 3042 3044 3045 3046 3046 3047 3049 3050 3050 3051 3051 3050 3050 3050 3051 3052 3052 3052 3052 3054 3055 3056 3056 3058 3059 3061 3065 3067 3067 3066 3067 3069 3069 3070 3072 3073 3073 3073 3073 3074 3074 3073 3073
3036 3036 3036 3035 3033 3032 3032 3031 3029 3028 3027 3026 3025 3026 3026 3026 3026 3027 3028 3029 3029 3030 3030 3030 3029 3029 3030 3030 3031 3031 3032 3032 3033 3033 3032 3033 3034 3035 3036 3036 3036 3038 3039 3040 3041 3043 3044 3044 3045 3046 3047 3048 3050 3051 3052 3053 3053 3053 3051 3050 3050 3050 3051 3052 3053 3055 3056 3057 3058 3059 3061 3064 3067 3067 3066 3067 3068 3068 3069 3071 3072 3073 3073 3073 3073 3074 3075 3075
3036 3036 3035 3034 3032 3031 3030 3029 3027 3026 3025 3025 3024 3024 3025 3025 3026 3027 3026 3027 3028 3028 3029 3029 3029 3029 3029 3030 3030 3031 3031 3032 3032 3033 3033 3033 3033 3033 3035 3036 3037 3038 3038 3039 3041 3042 3043 3043 3044 3045 3047 3048 3049 3051 3052 3053 3053 3053 3052 3050 3049 3049 3049 3050 3051 3053 3055 3056 3058 3059 3061 3063 3065 3066 3066 3067 3069 3069 3070 3071 3073 3075 3075 3073 3073 3075 3076 3077
3037 3035 3034 3033 3032 3031 3029 3027 3026 3025 3024 3023 3023 3023 3023 3024 3025 3026 3026 3026 3027 3028 3028 3029 3029 3030 3030 3031 3031 3031 3031 3031 3031 3032 3033 3032 3031 3032 3034 3035 3036 3037 3038 3039 3040 3041 3042 3043 3043 3044 3045 3047 3049 3050 3051 3052 3053 3053 3053 3052 3051 3050 3049 3049 3050 3052 3054 3054 3055 3058 3060 3062 3064 3065 3066 3067 3068 3070 3070 3071 3074 3076 3074 3071 3072 3074 3076 3077
3035 3034 3033 3032 3032 3031 3029 3027 3026 3025 3023 3023 3023 3024 3024 3024 3024 3025 3025 3025 3025 3027 3028 3028 3029 3030 3031 3031 3030 3030 3030 3030 3030 3030 3031 3031 3031 3033 3034 3034 3034 3036 3038 3040 3040 3040 3041 3041 3042 3043 3044 3045 3047 3049 3050 3050 3051 3053 3054 3054 3054 3052 3051 3051 3050 3051 3053 3053 3055 3057 3059 3061 3063 3064 3065 3066 3067 3068 3069 3071 3074 3075 3074 3071 3071 3073 3075 3076
3034 3034 3033 3033 3032 3031 3029 3027 3026 3025 3023 3023 3024 3024 3024 3025 3025 3026 3026 3025 3025 3027 3028 3028 3028 3029 3029 3028 3027 3027 3027 3028 3029 3030 3030 3031 3032 3034 3035 3035 3035 3036 3038 3039 3039 3039 3040 3040 3041 3042 3043 3044 3046 3047 3048 3049 3050 3051 3053 3054 3055 3055 3054 3053 3053 3053 3053 3053 3054 3056 3058 3060 3061 3063 3063 3064 3065 3065 3067 3069 3071 3073 3074 3072 3071 3072 3073 3074
3034 3034 3034 3033 3034 3033 3031 3029 3027 3025 3024 3024 3025 3025 3024 3025 3025 3026 3026 3026 3026 3027 3028 3027 3026 3027 3027 3026 3025 3025 3026 3027 3029 3030 3031 3032 3033 3034 3035 3036 3036 3036 3037 3038 3037 3038 3039 3040 3041 3042 3043 3043 3044 3046 3047 3048 3049 3049 3050 3052 3054 3055 3055 3055 3055 3056 3055 3054 3054 3055 3056 3057 3058 3059 3060 3061 3062 3063 3065 3067 3069 3070 3071 3071 3071 3072 3072 3072
3034 3034 3034 3034 3034 3034 3033 3032 3030 3027 3026 3026 3026 3026 3026 3026 3026 3026 3026 3026 3026 3026 3027 3027 3026 3026 3026 3025 3025 3026 3026 3027 3028 3029 3030 3031 3033 3035 3036 3036 3037 3037 3037 3038 3037 3037 3038 3039 3040 3042 3042 3042 3043 3045 3046 3047 3048 3048 3049 3050 3052 3054 3055 3056 3056 3057 3056 3055 3055 3055 3055 3055 3056 3057 3059 3059 3060 3061 3063 3065 3066 3067 3068 3068 3069 3070 3070 3071